Powrót do katalogu

CZ-4 DEB

AktywnySSO
NORAD 26234·DEBRIS·🇨🇳 China

Wystrzelony Oct 14, 1999 z Taiyuan Satellite Launch Center

Loading…

Następne Przeloty (najbliższe 24 godziny)

TLE

ŚwieżeSource: Space-Track

Epoka: Sep 14, 2026, 13:53 UTC

1 26234U 99057DY  26257.57901916  .00000403  00000-0  10323-3 0  9996
2 26234  98.6182  20.0796 0010842 359.1471  62.3264 14.55761187403322

Śledź CZ-4 DEB w czasie rzeczywistym z AllMySat

Download on the App Store